Sarasota, FL

2:40 AM EDT on October 22, 2019 (GMT -0400)
Sarasota-bradenton

Weather History for KSRQ - August, 2019

Change the Weather History Date:

Saturday, August 31, 2019

  Actual Average Record
Temperature  
Mean Temperature 86 °F 82 °F  
Max Temperature 95 °F 90 °F 97 °F (1970)
Min Temperature 78 °F 75 °F 65 °F (1927)
Degree Days  
Heating Degree Days 0 0  
Month to date heating degree days 0 0  
Since 1 June heating degree days 0 0  
Since 1 July heating degree days 0 0  
Cooling Degree Days 22 17  
Month to date cooling degree days 587 535  
Year to date cooling degree days 2858 2297  
Since 1 June cooling degree days 1701 1546  
Growing Degree Days 36 (Base 50)    
Moisture  
Dew Point 75 °F    
Average Humidity 75    
Maximum Humidity 91    
Minimum Humidity 54    
Precipitation  
Precipitation 0.10 in 0.28 in 7.76 in (2016)
Month to date precipitation 12.86 9.14  
Year to date precipitation 41.39 38.33  
Sea Level Pressure  
Sea Level Pressure 29.92 in    
Wind  
Wind Speed 8 mph ()    
Max Wind Speed 31 mph    
Max Gust Speed 40 mph    
Visibility 9.6 miles    
Events Rain , Thunderstorm    
T = Trace of Precipitation, MM = Missing Value Source: Averaged Metar Reports

Daily Weather History Graph

Daily Weather History Graph

Search for Another Location

Airport or City:

Astronomy

Aug. 31, 2019 Rise Set
Actual Time 7:08 AM EDT 7:51 PM EDT
Civil Twilight 6:44 AM EDT 8:15 PM EDT
Nautical Twilight 6:16 AM EDT 8:43 PM EDT
Astronomical Twilight 5:48 AM EDT 9:12 PM EDT
Moon 8:20 AM EDT (8/31) 9:10 PM EDT (8/31)
Length of Visible Light 13h 30m
Length of Day
12h 43m
New Moon, 2% of the Moon is Illuminated
Aug 31
New Moon
Sep 5
First Quarter
Sep 14
Full
Sep 21
Last Quarter
Sep 28
New

Hourly Weather History & Observations

Time (EDT) Temp. Heat Index Dew Point Humidity Pressure Visibility Wind Dir Wind Speed Gust Speed Precip Events Conditions
12:53 AM 80.1 °F 85.8 °F 77.0 °F 90% 29.94 in 10.0 mi NE 4.6 mph - N/A   Clear
1:53 AM 80.1 °F 85.4 °F 75.9 °F 87% 29.94 in 10.0 mi ENE 5.8 mph - N/A   Clear
2:53 AM 79.0 °F - 75.9 °F 90% 29.93 in 10.0 mi ENE 4.6 mph - N/A   Clear
3:53 AM 79.0 °F - 75.9 °F 90% 29.91 in 10.0 mi ENE 5.8 mph - N/A   Clear
5:53 AM 78.1 °F - 75.0 °F 90% 29.91 in 10.0 mi ENE 6.9 mph - N/A   Clear
6:53 AM 78.1 °F - 75.0 °F 90% 29.93 in 10.0 mi ENE 6.9 mph - N/A   Clear
7:53 AM 79.0 °F - 75.0 °F 88% 29.95 in 10.0 mi ENE 6.9 mph - N/A   Clear
8:53 AM 82.0 °F 89.4 °F 75.9 °F 82% 29.95 in 10.0 mi East 9.2 mph - N/A   Clear
9:53 AM 84.9 °F 94.1 °F 75.9 °F 74% 29.95 in 10.0 mi East 10.4 mph - N/A   Clear
10:53 AM 88.0 °F 100.2 °F 77.0 °F 70% 29.96 in 10.0 mi East 11.5 mph - N/A   Mostly Cloudy
11:01 AM 88.0 °F 98.5 °F 75.9 °F 67% 29.96 in 10.0 mi East 13.8 mph - N/A   Scattered Clouds
11:30 AM 90.0 °F 101.3 °F 75.9 °F 63% 29.96 in 10.0 mi East 9.2 mph - N/A   Mostly Cloudy
11:53 AM 89.1 °F 100.2 °F 75.9 °F 65% 29.95 in 10.0 mi East 12.7 mph 17.3 mph N/A   Mostly Cloudy
12:53 PM 91.0 °F 102.9 °F 75.9 °F 61% 29.93 in 10.0 mi East 12.7 mph - N/A   Scattered Clouds
1:53 PM 93.0 °F 104.6 °F 75.0 °F 56% 29.92 in 10.0 mi ESE 11.5 mph - 0.00 in   Partly Cloudy
2:53 PM 93.0 °F 104.6 °F 75.0 °F 56% 29.90 in 10.0 mi East 20.7 mph 25.3 mph N/A   Mostly Cloudy
3:16 PM 84.9 °F 94.1 °F 75.9 °F 74% 29.91 in 10.0 mi ESE 10.4 mph - 0.06 in Rain , Thunderstorm Light Thunderstorms and Rain
3:31 PM 86.0 °F 96.0 °F 75.9 °F 72% 29.90 in 10.0 mi East 9.2 mph - 0.06 in Thunderstorm Mostly Cloudy
3:41 PM 87.1 °F 97.3 °F 75.9 °F 69% 29.89 in 10.0 mi ENE 8.1 mph - 0.06 in   Partly Cloudy
3:53 PM 88.0 °F 96.5 °F 73.9 °F 63% 29.88 in 10.0 mi ENE 11.5 mph - 0.06 in   Clear
4:32 PM 91.9 °F 100.7 °F 73.0 °F 54% 29.89 in 10.0 mi East 24.2 mph 35.7 mph N/A Thunderstorm Partly Cloudy
4:49 PM 78.8 °F - 71.6 °F 78% 29.89 in 3.0 mi NE 11.5 mph 40.3 mph 0.04 in Rain , Thunderstorm Heavy Thunderstorms and Rain
4:53 PM 80.1 °F 83.8 °F 72.0 °F 76% 29.89 in 4.0 mi NNE 5.8 mph 17.3 mph 0.04 in Rain , Thunderstorm Thunderstorms and Rain
5:24 PM 84.0 °F 91.2 °F 73.9 °F 72% 29.89 in 10.0 mi ENE 8.1 mph - 0.00 in Thunderstorm Scattered Clouds
5:42 PM 82.9 °F 88.8 °F 73.0 °F 72% 29.89 in 10.0 mi ESE 5.8 mph - 0.00 in   Clear
5:53 PM 82.0 °F 87.4 °F 73.0 °F 74% 29.89 in 10.0 mi NNE 6.9 mph - 0.00 in   Clear
6:53 PM 82.0 °F 88.6 °F 75.0 °F 79% 29.88 in 10.0 mi NE 3.5 mph - N/A   Clear
7:53 PM 82.9 °F 91.8 °F 77.0 °F 82% 29.89 in 10.0 mi NNE 6.9 mph - N/A   Clear
8:53 PM 82.9 °F 91.8 °F 77.0 °F 82% 29.91 in 10.0 mi ENE 4.6 mph - N/A   Partly Cloudy
9:53 PM 82.9 °F 91.8 °F 77.0 °F 82% 29.94 in 10.0 mi ENE 5.8 mph - N/A   Clear
10:53 PM 82.0 °F 89.4 °F 75.9 °F 82% 29.95 in 10.0 mi East 6.9 mph - N/A   Clear
11:53 PM 81.0 °F 86.7 °F 75.0 °F 82% 29.94 in 10.0 mi ENE 6.9 mph - N/A   Clear